Location: DaVinci Observatory
(43.1080°N, 78.6453°W)
Time: 18:42:06
(UTC-04:00)

Tiangong 2 - Pass Details

Date: 14 October 2017
Orbit: 388 x 391 km, 42.8° (Epoch: 23 October)

Event Time Altitude Azimuth Distance (km) Brightness Sun altitude
Exits shadow 04:58:29 17° 88° (E) 1,060 4.0 -27.7°
Drops below altitude 10° 04:59:23 10° 85° (E) 1,421 4.9 -27.6°
Sets 05:01:29 0° 82° (E) 2,278 6.3 -27.2°
